This demonstration page uses our WeatherBlox Daily Observations layout. Learn more.

Left ArrowRight Arrow

39.08367, -84.50855

Hourly Observations for February 29, 2016

Temp ( °F °C ) Dew Point ( °F °C ) Humidity (%) Winds ( mph kmh ) Pressure ( in mb ) Visibility ( mi km ) Precip ( " mm )
12:53 am 00:53 Cloudy with Rain 55 12.8 45 7.2 69 69 WSW 24 39 29.67 1005 5 8 0.01 0.25
1:53 am 01:53 Cloudy with Light Rain 48 9 N/A N/A W 12 19 29.75 1007 8 13 0.12 3.05
2:33 am 02:33 Cloudy with Light Rain 48 9 N/A N/A W 8 13 29.80 1009 8 13 0.02 0.51
2:53 am 02:53 Cloudy 48 9 N/A N/A WNW 9 15 29.77 1008 10 16 0.03 0.76
3:53 am 03:53 Cloudy 45 7 N/A N/A W 13 20 29.83 1010 10 16 N/A
4:04 am 04:04 Cloudy 45 7 N/A N/A WNW 12 19 29.88 1012 10 16 N/A
4:40 am 04:40 Cloudy 45 7 N/A N/A WNW 10 17 29.91 1013 10 16 N/A
4:53 am 04:53 Cloudy 43 6 N/A N/A W 17 28 29.89 1012 10 16 N/A
5:38 am 05:38 Cloudy 43 6 43 6 100 100 W 13 20 29.94 1014 10 16 N/A
5:53 am 05:53 Cloudy 42 5.6 37 2.8 82 82 W 14 22 29.93 1013 10 16 N/A
6:04 am 06:04 Cloudy 43 6 36 2 76 76 W 14 22 29.94 1014 10 16 N/A
6:53 am 06:53 Cloudy 41 5 34 1.1 76 76 W 15 24 29.96 1015 10 16 N/A
7:53 am 07:53 Cloudy 41 5 34 1.1 76 76 W 16 26 29.99 1016 10 16 N/A
8:53 am 08:53 Cloudy 40 4.4 33 0.6 77 77 W 13 20 30.03 1017 10 16 N/A
9:53 am 09:53 Cloudy 41 5 33 0.6 73 73 WSW 9 15 30.05 1018 10 16 N/A
10:53 am 10:53 Mostly Cloudy 42 5.6 32 undefined 68 68 WNW 8 13 30.09 1019 10 16 N/A
11:53 am 11:53 Partly Cloudy 46 7.8 34 1.1 63 63 SW 10 17 30.09 1019 10 16 N/A
12:53 pm 12:53 Mostly Sunny 49 9.4 35 1.7 59 59 W 12 19 30.06 1018 10 16 N/A
1:53 pm 13:53 Sunny 52 11.1 34 1.1 50 50 SW 16 26 30.03 1017 10 16 N/A
2:53 pm 14:53 Sunny 54 12.2 33 0.6 45 45 SW 13 20 30.03 1017 10 16 N/A
3:53 pm 15:53 Sunny 55 12.8 35 1.7 47 47 SW 12 19 30.02 1017 10 16 N/A
4:53 pm 16:53 Sunny 55 12.8 31 -0.6 40 40 WSW 14 22 30.02 1017 10 16 N/A
5:53 pm 17:53 Sunny 53 11.7 31 -0.6 43 43 SW 9 15 30.02 1017 10 16 N/A
6:53 pm 18:53 Clear 50 10 32 undefined 50 50 SSW 7 11 30.03 1017 10 16 N/A
7:53 pm 19:53 Clear 46 7.8 34 1.1 63 63 SSW 7 11 30.04 1017 10 16 N/A
8:53 pm 20:53 Clear 43 6.1 36 2.2 76 76 SW 3 6 30.04 1017 10 16 N/A
9:53 pm 21:53 Clear 40 4.4 35 1.7 83 83 N N/A 30.05 1018 10 16 N/A
10:53 pm 22:53 Clear 39 3.9 34 1.1 82 82 N N/A 30.05 1018 10 16 N/A
11:53 pm 23:53 Clear 37 2.8 34 1.1 89 89 N N/A 30.04 1017 10 16 N/A

Powered by AerisWeather